Regional Weather Roundup
Issued by NWS

Home | Current Version | Previous Version | Graphics & Text | Print | Product List | Glossary On
Versions: 1 2 3 4 5 6 7 8 9 10 11 12 13 14 15 16 17 18 19 20 21 22 23 24 25 26 27 28 29 30 31 32 33 34 35 36 37 38 39 40 41 42 43 44 45 46 47 48 49 50
674
ASUS43 KLMK 300902
RWRKY
KENTUCKY REGIONAL WEATHER ROUNDUP
NATIONAL WEATHER SERVICE LOUISVILLE KY
500 AM EDT TUE AUG 30 2016

NOTE "FAIR" INDICATES FEW OR NO CLOUDS BELOW 12,000 FEET
WITH NO SIGNIFICANT WEATHER AND/OR OBSTRUCTIONS TO VISIBILITY.

KYZ001>023-026-027-061>063-070>075-301000-
WESTERN AND SOUTH CENTRAL KENTUCKY

CITY           SKY/WX    TMP DP  RH WIND       PRES   REMARKS
PADUCAH        CLEAR     73  71  93 CALM      30.08F
HENDERSON      CLEAR     72  66  83 CALM      30.09F
OWENSBORO      CLEAR     76  74  93 CALM      30.11S
HOPKINSVILLE   CLEAR     73  71  92 NE6       30.09S
BOWLING GREEN  CLEAR     72  70  93 CALM      30.10F
GLASGOW        CLEAR     72  72 100 NE5       30.11F
$$

KYZ024-025-028>034-038-045-046-053-301000-
NORTH CENTRAL KENTUCKY

CITY           SKY/WX    TMP DP  RH WIND       PRES   REMARKS
LOUISVILLE/SDF CLEAR     77  71  82 N6        30.12S
LOUISVILLE/LOU CLEAR     75  70  84 N5        30.13S
FORT KNOX      CLEAR     71  69  96 NE2       30.11F
$$

KYZ035>037-039>044-047>052-055>060-089>105-301000-
NORTHEAST KENTUCKY

CITY           SKY/WX    TMP DP  RH WIND       PRES   REMARKS
LEXINGTON      CLEAR     70  67  90 NE6       30.15S
COVINGTON      CLEAR     74  70  87 NE7       30.17S
FRANKFORT      CLEAR     70  67  90 CALM      30.14S
$$

KYZ054-064>069-076>088-106>120-301000-
SOUTHEAST KENTUCKY

CITY           SKY/WX    TMP DP  RH WIND       PRES   REMARKS
JACKSON        CLEAR     70  68  93 CALM      30.16S FOG
LONDON         CLEAR     69  66  90 NE3       30.14S
SOMERSET       CLEAR     68  68 100 CALM      30.14S
MIDDLESBORO    CLOUDY    69  69 100 CALM      30.15F FOG
MONTICELLO     SUNNY    N/A N/A N/A VRB6      30.14F
$$





USA.gov is the U.S. government's official web portal to all federal, state and local government web resources and services.